TimeEST,TemperatureF,Dew PointF,Humidity,Sea Level PressureIn,VisibilityMPH,Wind Direction,Wind SpeedMPH,Gust SpeedMPH,PrecipitationIn,Events,Conditions,WindDirDegrees,DateUTC
12:53 AM,8.1,-2.9,61,30.31,10.0,WNW,3.5,-,N/A,,Clear,300,2004-01-23 05:53:00
1:53 AM,6.1,-0.0,76,30.30,10.0,Calm,Calm,-,N/A,,Clear,0,2004-01-23 06:53:00
2:53 AM,7.0,-0.0,73,30.29,10.0,WSW,3.5,-,N/A,,Clear,250,2004-01-23 07:53:00
3:53 AM,6.1,-0.9,73,30.29,10.0,WSW,3.5,-,N/A,,Clear,240,2004-01-23 08:53:00
4:53 AM,8.1,1.0,73,30.28,10.0,West,3.5,-,N/A,,Overcast,270,2004-01-23 09:53:00
5:53 AM,9.0,1.0,70,30.26,10.0,SW,5.8,-,N/A,,Overcast,230,2004-01-23 10:53:00
6:53 AM,10.0,-0.9,61,30.24,10.0,SW,4.6,-,N/A,,Overcast,220,2004-01-23 11:53:00
7:53 AM,10.9,-0.0,61,30.24,10.0,SSW,8.1,-,N/A,,Overcast,210,2004-01-23 12:53:00
8:53 AM,12.0,1.0,61,30.22,10.0,South,6.9,-,N/A,,Overcast,190,2004-01-23 13:53:00
9:53 AM,12.9,1.0,59,30.20,10.0,South,12.7,-,N/A,,Overcast,180,2004-01-23 14:53:00
10:53 AM,16.0,1.9,54,30.20,10.0,SSW,10.4,-,N/A,,Overcast,200,2004-01-23 15:53:00
11:53 AM,19.0,3.9,52,30.14,10.0,South,10.4,-,N/A,,Overcast,180,2004-01-23 16:53:00
12:53 PM,21.9,3.9,46,30.09,10.0,South,11.5,-,N/A,,Overcast,190,2004-01-23 17:53:00
1:53 PM,25.0,6.1,45,30.02,10.0,South,16.1,-,N/A,,Mostly Cloudy,180,2004-01-23 18:53:00
2:53 PM,26.1,9.0,49,29.95,10.0,South,13.8,-,N/A,,Clear,180,2004-01-23 19:53:00
3:53 PM,28.0,12.0,51,29.89,10.0,South,13.8,-,N/A,,Mostly Cloudy,180,2004-01-23 20:53:00
4:53 PM,28.0,12.9,53,29.86,10.0,South,17.3,-,N/A,,Clear,190,2004-01-23 21:53:00
5:53 PM,28.9,14.0,54,29.85,10.0,SSW,9.2,-,N/A,,Mostly Cloudy,200,2004-01-23 22:53:00
6:53 PM,30.0,16.0,56,29.85,10.0,SSW,10.4,-,N/A,,Overcast,210,2004-01-23 23:53:00
7:53 PM,32.0,17.1,54,29.83,10.0,SSW,12.7,-,N/A,,Overcast,200,2004-01-24 00:53:00
8:53 PM,34.0,19.0,54,29.82,10.0,SSW,12.7,-,N/A,,Overcast,210,2004-01-24 01:53:00
9:53 PM,35.1,21.9,59,29.80,10.0,SW,16.1,-,N/A,,Overcast,220,2004-01-24 02:53:00
10:53 PM,37.0,25.0,62,29.79,10.0,SW,16.1,-,N/A,,Overcast,230,2004-01-24 03:53:00
11:53 PM,37.0,28.0,70,29.79,10.0,WSW,13.8,23.0,N/A,,Overcast,240,2004-01-24 04:53:00